Tracking 19847 objects as of 15-Sep-2019
HD Live streaming from Space Station
objects crossing your sky now

COSMOS 1980

Track COSMOS 1980 now!
10-day predictions
COSMOS 1980 is classified as:


NORAD ID: 19649
Int'l Code: 1988-102A
Perigee: 847.2 km
Apogee: 853.7 km
Inclination: 71.0 °
Period: 101.8 minutes
Semi major axis: 7221 km
RCS: 11.2405 m2 (large)
Launch date: November 23, 1988
Source: Commonwealth of Independent States (former USSR) (CIS)
Launch site: TYURATAM MISSILE AND SPACE COMPLEX (TTMTR)
aabbcc
Your satellite tracking list
Your tracking list is empty




NASA's NSSDC Master Catalog

Two Line Element Set (TLE):
1 19649U 88102A   19257.91769738 -.00000138 +00000-0 -46991-4 0  9999
2 19649 071.0008 145.2761 0004436 174.3383 185.7791 14.14706188590236
Source of the keplerian elements: AFSPC